Sterling, IL

6:07 PM CST on November 21, 2019 (GMT -0600)
Whiteside County-Bittorf

Weather History for KSQI - July, 2019

Change the Weather History Date:

Monday, July 29, 2019

  Actual Average Record
Temperature  
Mean Temperature 78 °F -  
Max Temperature 88 °F 81 °F 98 °F (1999)
Min Temperature 68 °F 60 °F 44 °F (2013)
Cooling Degree Days 14    
Growing Degree Days 28 (Base 50)    
Moisture  
Dew Point 67 °F    
Average Humidity 73    
Maximum Humidity 100    
Minimum Humidity 45    
Precipitation  
Precipitation 0.00 in - - ()
Sea Level Pressure  
Sea Level Pressure 29.58 in    
Wind  
Wind Speed 7 mph (West)    
Max Wind Speed 12 mph    
Max Gust Speed 18 mph    
Visibility 10 miles    
Events      
Averages and records for this station are not official NWS values.
T = Trace of Precipitation, MM = Missing Value Source: NWS Daily Summary

Daily Weather History Graph

Daily Weather History Graph

Search for Another Location

Airport or City:

Astronomy

Jul. 29, 2019 Rise Set
Actual Time 5:49 AM CDT 8:20 PM CDT
Civil Twilight 5:17 AM CDT 8:51 PM CDT
Nautical Twilight 4:38 AM CDT 9:31 PM CDT
Astronomical Twilight 3:54 AM CDT 10:15 PM CDT
Moon 3:00 AM CDT (7/29) 6:24 PM CDT (7/29)
Length of Visible Light 15h 33m
Length of Day
14h 30m
Waning Crescent, 8% of the Moon is Illuminated
Jul 29
Waning Crescent
Jul 31
New
Aug 7
First Quarter
Aug 15
Full
Aug 23
Last Quarter

Hourly Weather History & Observations

Time (CDT) Temp. Heat Index Dew Point Humidity Pressure Visibility Wind Dir Wind Speed Gust Speed Precip Events Conditions
7:30 AM 71.6 °F - 71.6 °F 100% 29.88 in 9.0 mi Calm Calm - N/A   Overcast
7:56 AM 73.0 °F - 71.1 °F 93% 29.47 in 10.0 mi WSW 4.6 mph - N/A   Mostly Cloudy
8:56 AM 73.0 °F - 70.0 °F 90% 29.48 in 10.0 mi WSW 11.5 mph - N/A   Overcast
9:56 AM 73.0 °F - 70.0 °F 90% 29.49 in 10.0 mi West 10.4 mph - N/A   Overcast
10:56 AM 73.9 °F - 70.0 °F 87% 29.50 in 10.0 mi WSW 8.1 mph - N/A   Overcast
11:38 AM 78.8 °F - 71.6 °F 78% 29.90 in 10.0 mi WSW 9.2 mph - N/A   Overcast
11:46 AM 77.0 °F - 69.8 °F 78% 29.90 in 10.0 mi West 9.2 mph - N/A   Overcast
11:56 AM 75.9 °F - 70.0 °F 82% 29.49 in 10.0 mi WSW 5.8 mph - N/A   Overcast
12:56 PM 81.0 °F 84.9 °F 71.1 °F 72% 29.48 in 10.0 mi SW 6.9 mph - N/A   Mostly Cloudy
1:13 PM 80.6 °F 84.6 °F 71.6 °F 74% 29.88 in 10.0 mi West 9.2 mph - N/A   Mostly Cloudy
1:23 PM 82.4 °F 87.2 °F 71.6 °F 70% 29.87 in 10.0 mi West 10.4 mph 18.4 mph N/A   Mostly Cloudy
1:56 PM 82.0 °F 86.3 °F 71.1 °F 69% 29.47 in 10.0 mi West 9.2 mph - N/A   Scattered Clouds
2:56 PM 87.1 °F 88.9 °F 64.9 °F 48% 29.46 in 10.0 mi WNW 10.4 mph - N/A   Clear
3:56 PM 88.0 °F 89.3 °F 64.0 °F 45% 29.47 in 10.0 mi NW 10.4 mph - N/A   Scattered Clouds
4:56 PM 86.0 °F 87.3 °F 64.0 °F 48% 29.47 in 10.0 mi WNW 11.5 mph - N/A   Partly Cloudy
5:56 PM 84.9 °F 85.4 °F 62.1 °F 46% 29.48 in 10.0 mi NW 11.5 mph - N/A   Clear
6:56 PM 82.9 °F 84.0 °F 63.0 °F 51% 29.49 in 10.0 mi NW 9.2 mph - N/A   Clear
7:56 PM 78.1 °F - 63.0 °F 60% 29.50 in 10.0 mi WNW 5.8 mph - N/A   Clear
8:56 PM 73.0 °F - 63.0 °F 71% 29.52 in 10.0 mi WNW 5.8 mph - N/A   Clear
9:56 PM 70.0 °F - 63.0 °F 78% 29.54 in 10.0 mi WNW 5.8 mph - N/A   Partly Cloudy
10:56 PM 69.1 °F - 63.0 °F 81% 29.55 in 10.0 mi West 5.8 mph - N/A   Clear
11:56 PM 68.0 °F - 63.0 °F 84% 29.56 in 10.0 mi West 5.8 mph - N/A   Clear